Vertical_Velocity
6 -4 -3 -18 3 -7 10 -6 -10 23 1 -1 -13 2 1 -1 0 2 -5 -4 2 3 2 2 3 5 4
-2 -2 13 5 3 17 -2 8 15 -4 -15 1 -0 -0 1 -1 -2 1 -2 -2 -2 -2 -1 0 2 1 0
3 1 2 -4 -14 -9 -5 -8 -0 -3 -3 -2 1 -2 1 -1 1 -1 -2 -2 -3 -2 -1 -1 -0 -1 1
3 -0 -2 -1 1 4 3 -1 -1 -3 1 1 -0 -1 -2 -3 -3 -2 0 1 -1 -1 0 1 0 -0 -0
4 1 1 3 2 1 1 4 -1 -0 2 -1 0 -4 -6 -4 -3 -3 -2 -3 -2 -2 -3 -1 -2 -3 -2
0 2 2 2 -1 -1 -0 -3 0 -4 2 10 1 2 -1 -3 -4 -0 -3 -4 -3 -2 -2 -1 -2 -2 -2
-1 0 -0 1 2 1 -1 3 3 -2 -7 12 -7 1 1 -2 -2 0 -4 -4 -2 -1 -1 -2 -2 -1 -2
1 -0 0 0 0 -2 -3 -2 1 -4 -11 -0 -7 0 4 -7 -1 -3 -3 -2 -3 -3 -1 0 -0 -1 -2
1 -0 -2 -3 -2 -3 -3 -3 0 6 -4 -5 4 -4 6 -0 -5 -5 -3 -3 -3 -2 -2 -3 -3 -1 -1
-5 -5 -4 -4 -3 -1 -2 -1 -5 5 -6 -6 2 -10 -5 20 4 -3 1 -4 -2 -2 -2 -3 -4 -2 1
-1 -2 -2 -2 -2 -3 -4 -3 -0 -0 -4 -9 3 1 -7 -15 16 -7 -4 1 0 0 -1 -3 -3 -3 1
1 0 -1 0 -0 0 -1 -1 -3 -3 2 -3 -5 -2 -3 -1 -2 8 -2 2 -1 -2 -2 -1 -1 -0 -1
0 -1 -1 0 -3 2 -3 -3 -2 -4 -5 -3 -2 -0 -2 -1 -6 0 -8 6 0 -2 -0 -2 1 0 -2
-1 -0 -1 -2 -5 -6 -2 -2 2 4 -5 -3 -1 -1 -0 -0 -3 -2 -2 -8 5 -1 1 -1 1 -6 -2
-2 -2 -3 0 -2 -3 -5 -2 -3 -1 4 1 -2 -2 -1 -2 2 -3 0 2 -3 0 1 1 -4 -0 0
-1 0 -2 -0 1 -1 -3 -2 -1 -2 -1 -2 1 3 5 6 -5 -1 -3 0 -1 -2 -2 -0 -1 -1 -2
-2 -1 -1 -2 0 0 -1 -4 -1 -1 -0 -4 1 -2 1 2 3 -2 -1 -1 -1 -2 0 -1 0 1 -0
Height
3021 3021 3020 3019 3019 3020 3019 3020 3019 3017 3017 3016 3015 3015 3014 3013 3010 3008 3007 3006 3004 3002 3001 3000 2999 2998 2999
3013 3012 3012 3011 3011 3011 3010 3009 3008 3006 3009 3008 3006 3004 3001 3000 2997 2995 2993 2992 2991 2989 2987 2986 2985 2983 2983
3006 3006 3006 3006 3004 3002 3001 3001 3000 2999 2998 2997 2995 2992 2990 2988 2985 2983 2981 2980 2978 2976 2974 2973 2971 2970 2969
2999 2999 2999 2998 2996 2995 2995 2993 2992 2988 2987 2985 2983 2981 2980 2976 2974 2971 2969 2968 2965 2962 2961 2959 2957 2956 2954
2993 2992 2992 2990 2989 2987 2986 2986 2984 2981 2979 2976 2974 2971 2967 2964 2960 2958 2955 2953 2951 2949 2946 2943 2941 2939 2938
2987 2986 2984 2982 2981 2979 2977 2977 2978 2973 2969 2971 2963 2962 2958 2954 2950 2947 2945 2941 2937 2934 2932 2930 2927 2925 2923
2981 2979 2976 2974 2973 2971 2967 2965 2964 2963 2956 2960 2955 2952 2948 2944 2939 2936 2931 2927 2924 2922 2919 2917 2914 2911 2909
2974 2971 2969 2967 2964 2961 2957 2955 2953 2951 2944 2943 2943 2941 2939 2933 2928 2922 2917 2914 2911 2907 2904 2902 2900 2898 2896
2967 2964 2961 2957 2954 2952 2948 2945 2942 2943 2937 2928 2927 2926 2925 2921 2917 2911 2906 2902 2898 2894 2892 2890 2888 2886 2884
2958 2955 2953 2949 2946 2942 2939 2936 2932 2929 2927 2922 2918 2911 2907 2911 2906 2901 2896 2891 2887 2884 2881 2880 2880 2878 2876
2952 2948 2945 2942 2939 2935 2930 2926 2922 2918 2912 2907 2905 2902 2897 2891 2894 2889 2885 2882 2879 2876 2874 2872 2870 2868 2867
2945 2942 2939 2935 2931 2927 2921 2917 2912 2907 2903 2898 2892 2888 2885 2883 2881 2882 2877 2874 2870 2869 2866 2862 2860 2859 2857
2939 2935 2931 2928 2923 2919 2914 2909 2904 2898 2893 2888 2884 2880 2877 2873 2870 2869 2866 2867 2863 2860 2858 2855 2853 2851 2850
2932 2928 2924 2919 2914 2910 2905 2901 2897 2892 2885 2880 2876 2872 2870 2868 2864 2862 2859 2857 2857 2854 2852 2849 2846 2843 2841
2923 2919 2916 2911 2906 2900 2896 2892 2887 2883 2880 2874 2869 2866 2863 2860 2859 2856 2855 2853 2850 2848 2846 2843 2839 2837 2833
2914 2910 2907 2903 2899 2894 2888 2884 2879 2875 2871 2867 2864 2862 2859 2857 2853 2852 2850 2848 2847 2844 2840 2838 2835 2831 2829
2906 2902 2898 2895 2890 2886 2881 2877 2873 2869 2865 2861 2858 2856 2854 2852 2851 2848 2847 2845 2843 2839 2836 2834 2831 2828 2827